| time (UTC) | temp C | wind direction | speed KPH | gust KPH | rain 1hr cm | rain 24hr cm | rain mn cm | humidity % | barometer mb |
| 20260507050722 | 14 | 14 | 3.2 | 3.2 | 0.00 | 0.00 | 0.00 | 90 | 1011.1 |
| 20260507050219 | 14 | 232 | 6.4 | 6.4 | 0.00 | 0.00 | 0.00 | 89 | 1011.2 |
| 20260507045716 | 14 | 282 | 1.6 | 3.2 | 0.00 | 0.00 | 0.00 | 90 | 1010.9 |
| 20260507045212 | 15 | 252 | 0.0 | 0.0 | 0.00 | 0.00 | 0.00 | 90 | 1010.6 |
| 20260507044709 | 15 | 199 | 3.2 | 4.8 | 0.00 | 0.00 | 0.00 | 91 | 1010.4 |
| 20260507044206 | 15 | 155 | 1.6 | 3.2 | 0.00 | 0.00 | 0.00 | 91 | 1010.1 |
| 20260507043702 | 15 | 132 | 0.0 | 1.6 | 0.00 | 0.00 | 0.00 | 92 | 1010.3 |
| 20260507043159 | 15 | 272 | 1.6 | 1.6 | 0.00 | 0.00 | 0.00 | 92 | 1010.5 |
| 20260507042655 | 15 | 238 | 3.2 | 4.8 | 0.00 | 0.00 | 0.00 | 92 | 1010.4 |
| 20260507042150 | 15 | 185 | 1.6 | 1.6 | 0.00 | 0.00 | 0.00 | 91 | 1010.5 |
| 20260507041648 | 15 | 129 | 0.0 | 1.6 | 0.00 | 0.00 | 0.00 | 91 | 1010.0 |
| 20260507041144 | 15 | 195 | 0.0 | 1.6 | 0.00 | 0.00 | 0.00 | 91 | 1010.5 |
| 20260507040641 | 15 | 197 | 0.0 | 1.6 | 0.00 | 0.00 | 0.00 | 91 | 1010.5 |
| 20260507040138 | 15 | 240 | 1.6 | 3.2 | 0.00 | 0.00 | 0.00 | 91 | 1010.4 |
| 20260507035633 | 15 | 198 | 0.0 | 1.6 | 0.00 | 0.25 | 0.25 | 91 | 1010.4 |
| 20260507035130 | 15 | 215 | 0.0 | 0.0 | 0.00 | 0.25 | 0.25 | 91 | 1010.5 |
| 20260507034627 | 15 | 261 | 3.2 | 4.8 | 0.00 | 0.25 | 0.25 | 91 | 1010.2 |
| 20260507034124 | 15 | 282 | 1.6 | 3.2 | 0.00 | 0.25 | 0.25 | 92 | 1010.3 |
| 20260507033623 | 15 | 24 | 1.6 | 3.2 | 0.00 | 0.25 | 0.25 | 91 | 1010.5 |
| 20260507033119 | 15 | 271 | 1.6 | 1.6 | 0.30 | 0.25 | 0.25 | 91 | 1010.3 |
| 20260507032617 | 16 | 256 | 3.2 | 4.8 | 0.30 | 0.25 | 0.25 | 91 | 1010.1 |
| 20260507032113 | 16 | 277 | 1.6 | 3.2 | 0.18 | 0.23 | 0.23 | 92 | 1010.4 |
| 20260507031609 | 16 | 287 | 4.8 | 6.4 | 0.00 | 0.20 | 0.20 | 95 | 1010.6 |
| 20260507031106 | 17 | 292 | 8.0 | 9.7 | 0.00 | 0.20 | 0.20 | 96 | 1010.2 |
| 20260507030603 | 17 | 249 | 4.8 | 4.8 | 0.00 | 0.20 | 0.20 | 96 | 1010.0 |
| 20260507030101 | 17 | 296 | 0.0 | 1.6 | 0.00 | 0.20 | 0.20 | 96 | 1009.9 |
| 20260507025558 | 17 | 282 | 1.6 | 1.6 | 0.00 | 0.20 | 0.20 | 96 | 1009.6 |
| 20260507025055 | 17 | 211 | 0.0 | 1.6 | 0.00 | 0.20 | 0.20 | 96 | 1009.3 |
| 20260507024553 | 17 | 233 | 0.0 | 0.0 | 0.18 | 0.20 | 0.20 | 96 | 1009.8 |
| 20260507024049 | 17 | 186 | 1.6 | 1.6 | 0.30 | 0.20 | 0.20 | 95 | 1010.0 |
| 20260507023545 | 17 | 252 | 1.6 | 1.6 | 0.13 | 0.18 | 0.18 | 93 | 1010.1 |
| 20260507023043 | 18 | 263 | 1.6 | 1.6 | 0.00 | 0.15 | 0.15 | 91 | 1010.1 |
| 20260507022539 | 18 | 275 | 1.6 | 1.6 | 0.00 | 0.15 | 0.15 | 90 | 1010.1 |
| 20260507022034 | 18 | 219 | 1.6 | 1.6 | 0.00 | 0.15 | 0.15 | 90 | 1009.9 |
| 20260507021531 | 18 | 241 | 0.0 | 0.0 | 0.00 | 0.15 | 0.15 | 90 | 1010.0 |
| 20260507021028 | 18 | 241 | 0.0 | 1.6 | 0.00 | 0.15 | 0.15 | 89 | 1009.9 |
| 20260507020525 | 18 | 241 | 1.6 | 1.6 | 0.00 | 0.15 | 0.15 | 89 | 1009.9 |
| 20260507020021 | 18 | 174 | 0.0 | 0.0 | 0.00 | 0.15 | 0.15 | 89 | 1010.0 |
| 20260507015520 | 18 | 110 | 0.0 | 0.0 | 0.00 | 0.15 | 0.15 | 89 | 1009.8 |
| 20260507015017 | 18 | 177 | 0.0 | 0.0 | 0.00 | 0.15 | 0.15 | 89 | 1010.2 |
| 20260507014513 | 18 | 165 | 0.0 | 0.0 | 0.00 | 0.15 | 0.15 | 89 | 1010.2 |
| 20260507014009 | 18 | 155 | 0.0 | 0.0 | 0.00 | 0.15 | 0.15 | 89 | 1010.4 |
| 20260507013506 | 18 | 167 | 0.0 | 1.6 | 0.00 | 0.15 | 0.15 | 89 | 1010.4 |
| 20260507013003 | 18 | 221 | 1.6 | 3.2 | 0.00 | 0.15 | 0.15 | 89 | 1010.3 |
| 20260507012500 | 18 | 149 | 0.0 | 0.0 | 0.00 | 0.15 | 0.15 | 89 | 1009.8 |
| 20260507011956 | 18 | 210 | 0.0 | 1.6 | 0.00 | 0.15 | 0.15 | 89 | 1010.0 |
| 20260507011454 | 18 | 145 | 0.0 | 0.0 | 0.00 | 0.15 | 0.15 | 89 | 1009.9 |
| 20260507010949 | 18 | 176 | 1.6 | 1.6 | 0.00 | 0.15 | 0.15 | 89 | 1010.0 |
| 20260507010444 | 18 | 145 | 0.0 | 0.0 | 0.00 | 0.15 | 0.15 | 89 | 1009.8 |
| 20260507005941 | 18 | 147 | 0.0 | 0.0 | 0.00 | 0.15 | 0.15 | 89 | 1009.8 |
| 20260507005438 | 18 | 147 | 0.0 | 0.0 | 0.00 | 0.15 | 0.15 | 89 | 1009.7 |
| 20260507004935 | 18 | 146 | 0.0 | 0.0 | 0.00 | 0.15 | 0.15 | 88 | 1009.7 |
| 20260507004432 | 18 | 146 | 0.0 | 0.0 | 0.00 | 0.15 | 0.15 | 88 | 1009.7 |
| 20260507003929 | 18 | 150 | 0.0 | 0.0 | 0.00 | 0.15 | 0.15 | 88 | 1010.0 |
| 20260507003424 | 18 | 153 | 1.6 | 1.6 | 0.00 | 0.15 | 0.15 | 88 | 1009.7 |
| 20260507002919 | 18 | 154 | 0.0 | 1.6 | 0.00 | 0.15 | 0.15 | 88 | 1009.8 |
| 20260507002416 | 18 | 148 | 1.6 | 1.6 | 0.00 | 0.15 | 0.15 | 88 | 1009.9 |
| 20260507001913 | 18 | 157 | 1.6 | 1.6 | 0.00 | 0.15 | 0.15 | 87 | 1009.7 |
| 20260507001410 | 18 | 147 | 0.0 | 0.0 | 0.00 | 0.15 | 0.15 | 87 | 1009.6 |
| 20260507000908 | 18 | 166 | 0.0 | 1.6 | 0.00 | 0.15 | 0.15 | 87 | 1009.4 |
| 20260507000405 | 18 | 159 | 0.0 | 1.6 | 0.00 | 0.15 | 0.15 | 86 | 1009.3 |
| 20260506235859 | 19 | 150 | 0.0 | 0.0 | 0.00 | 0.15 | 0.15 | 86 | 1009.1 |
| 20260506235356 | 19 | 149 | 0.0 | 0.0 | 0.00 | 0.15 | 0.15 | 86 | 1008.9 |
| 20260506234851 | 19 | 146 | 0.0 | 1.6 | 0.00 | 0.15 | 0.15 | 85 | 1009.3 |
| 20260506234349 | 19 | 151 | 0.0 | 0.0 | 0.00 | 0.15 | 0.15 | 85 | 1009.1 |
| 20260506233847 | 19 | 169 | 0.0 | 1.6 | 0.00 | 0.15 | 0.15 | 84 | 1009.0 |
| 20260506233343 | 19 | 154 | 1.6 | 1.6 | 0.00 | 0.15 | 0.15 | 84 | 1009.1 |
| 20260506232840 | 19 | 172 | 1.6 | 1.6 | 0.00 | 0.15 | 0.15 | 84 | 1009.2 |
| 20260506232336 | 20 | 146 | 0.0 | 0.0 | 0.00 | 0.15 | 0.15 | 84 | 1009.1 |
| 20260506231832 | 20 | 200 | 1.6 | 1.6 | 0.00 | 0.15 | 0.15 | 83 | 1009.3 |
| 20260506231330 | 20 | 146 | 1.6 | 1.6 | 0.00 | 0.15 | 0.15 | 84 | 1009.2 |
| 20260506230827 | 20 | 209 | 1.6 | 1.6 | 0.00 | 0.15 | 0.15 | 83 | 1009.1 |
| 20260506230324 | 20 | 209 | 0.0 | 1.6 | 0.00 | 0.15 | 0.15 | 83 | 1008.9 |
| 20260506225820 | 20 | 209 | 0.0 | 1.6 | 0.00 | 0.15 | 0.15 | 83 | 1009.1 |
| 20260506225318 | 20 | 209 | 0.0 | 0.0 | 0.00 | 0.15 | 0.15 | 83 | 1009.1 |
| 20260506224814 | 20 | 173 | 0.0 | 1.6 | 0.00 | 0.15 | 0.15 | 83 | 1009.2 |
| 20260506224312 | 20 | 142 | 0.0 | 1.6 | 0.00 | 0.15 | 0.15 | 82 | 1008.9 |
| 20260506223808 | 20 | 196 | 0.0 | 1.6 | 0.00 | 0.15 | 0.15 | 82 | 1009.4 |
| 20260506223303 | 20 | 174 | 1.6 | 1.6 | 0.00 | 0.15 | 0.15 | 82 | 1009.0 |
| 20260506222800 | 20 | 162 | 1.6 | 1.6 | 0.00 | 0.15 | 0.15 | 82 | 1009.1 |
| 20260506222256 | 20 | 213 | 3.2 | 4.8 | 0.00 | 0.15 | 0.15 | 81 | 1009.3 |
| 20260506221754 | 20 | 138 | 0.0 | 0.0 | 0.00 | 0.15 | 0.15 | 81 | 1009.3 |
| 20260506221252 | 20 | 165 | 1.6 | 1.6 | 0.00 | 0.15 | 0.15 | 81 | 1009.1 |
| 20260506220750 | 20 | 199 | 3.2 | 4.8 | 0.00 | 0.15 | 0.15 | 81 | 1008.9 |
| 20260506220249 | 20 | 123 | 1.6 | 3.2 | 0.00 | 0.15 | 0.15 | 81 | 1009.0 |
| 20260506215747 | 20 | 241 | 3.2 | 4.8 | 0.00 | 0.15 | 0.15 | 81 | 1009.0 |
| 20260506215242 | 20 | 159 | 0.0 | 1.6 | 0.00 | 0.15 | 0.15 | 81 | 1009.0 |
| 20260506214739 | 20 | 203 | 3.2 | 3.2 | 0.00 | 0.15 | 0.15 | 80 | 1009.1 |
| 20260506214236 | 20 | 194 | 1.6 | 1.6 | 0.00 | 0.15 | 0.15 | 81 | 1009.0 |
| 20260506213734 | 20 | 170 | 1.6 | 1.6 | 0.00 | 0.15 | 0.15 | 80 | 1009.0 |
| 20260506213231 | 20 | 200 | 1.6 | 3.2 | 0.00 | 0.15 | 0.15 | 79 | 1008.9 |
| 20260506212728 | 20 | 166 | 3.2 | 3.2 | 0.00 | 0.15 | 0.15 | 78 | 1008.6 |
| 20260506212224 | 20 | 127 | 0.0 | 1.6 | 0.00 | 0.15 | 0.15 | 80 | 1008.9 |
| 20260506211719 | 20 | 190 | 3.2 | 4.8 | 0.00 | 0.15 | 0.15 | 80 | 1008.9 |
| 20260506211216 | 20 | 187 | 0.0 | 1.6 | 0.00 | 0.15 | 0.15 | 80 | 1008.8 |
| 20260506210713 | 20 | 219 | 3.2 | 3.2 | 0.00 | 0.15 | 0.15 | 79 | 1008.8 |
| 20260506210210 | 20 | 124 | 1.6 | 3.2 | 0.00 | 0.15 | 0.15 | 80 | 1008.9 |
| 20260506205707 | 20 | 230 | 1.6 | 3.2 | 0.00 | 0.15 | 0.15 | 80 | 1008.6 |
| 20260506205202 | 20 | 208 | 1.6 | 3.2 | 0.00 | 0.15 | 0.15 | 80 | 1008.6 |
| 20260506204659 | 20 | 131 | 3.2 | 4.8 | 0.00 | 0.15 | 0.15 | 80 | 1008.9 |
| 20260506204156 | 20 | 191 | 4.8 | 6.4 | 0.00 | 0.15 | 0.15 | 80 | 1008.8 |
| 20260506203654 | 20 | 174 | 3.2 | 4.8 | 0.00 | 0.15 | 0.15 | 81 | 1008.7 |
| 20260506203151 | 20 | 188 | 1.6 | 1.6 | 0.00 | 0.15 | 0.15 | 79 | 1008.7 |
| 20260506202649 | 20 | 153 | 1.6 | 3.2 | 0.00 | 0.15 | 0.15 | 80 | 1008.5 |
| 20260506202145 | 20 | 182 | 4.8 | 4.8 | 0.00 | 0.15 | 0.15 | 79 | 1008.7 |
| 20260506201642 | 20 | 75 | 1.6 | 4.8 | 0.00 | 0.15 | 0.15 | 78 | 1008.6 |
| 20260506201138 | 20 | 195 | 3.2 | 3.2 | 0.00 | 0.15 | 0.15 | 78 | 1008.6 |
| 20260506200635 | 20 | 125 | 1.6 | 3.2 | 0.00 | 0.15 | 0.15 | 79 | 1008.6 |
| 20260506200132 | 20 | 214 | 4.8 | 4.8 | 0.00 | 0.15 | 0.15 | 80 | 1008.4 |
| 20260506195629 | 19 | 190 | 6.4 | 6.4 | 0.00 | 0.15 | 0.15 | 80 | 1008.5 |
| 20260506195125 | 20 | 185 | 4.8 | 4.8 | 0.00 | 0.15 | 0.15 | 81 | 1008.7 |
| 20260506194623 | 20 | 192 | 3.2 | 4.8 | 0.00 | 0.15 | 0.15 | 82 | 1008.8 |
| 20260506194119 | 19 | 170 | 1.6 | 1.6 | 0.00 | 0.15 | 0.15 | 83 | 1008.8 |
| 20260506193617 | 18 | 124 | 1.6 | 1.6 | 0.00 | 0.15 | 0.15 | 85 | 1009.0 |
| 20260506193114 | 18 | 192 | 3.2 | 3.2 | 0.00 | 0.15 | 0.15 | 85 | 1009.0 |
| 20260506192611 | 18 | 191 | 3.2 | 4.8 | 0.00 | 0.15 | 0.15 | 84 | 1008.8 |
| 20260506192106 | 18 | 202 | 3.2 | 4.8 | 0.00 | 0.15 | 0.15 | 85 | 1008.9 |
| 20260506191603 | 18 | 199 | 6.4 | 6.4 | 0.00 | 0.15 | 0.15 | 85 | 1009.1 |
| 20260506191059 | 18 | 192 | 3.2 | 3.2 | 0.00 | 0.15 | 0.15 | 85 | 1009.4 |
| 20260506190557 | 18 | 199 | 3.2 | 3.2 | 0.00 | 0.15 | 0.15 | 86 | 1009.1 |
| 20260506190053 | 18 | 195 | 3.2 | 4.8 | 0.00 | 0.15 | 0.15 | 86 | 1009.3 |
| 20260506185551 | 18 | 225 | 6.4 | 12.9 | 0.00 | 0.15 | 0.15 | 86 | 1009.4 |
| 20260506185047 | 17 | 179 | 4.8 | 4.8 | 0.00 | 0.15 | 0.15 | 86 | 1009.3 |
| 20260506184544 | 17 | 179 | 4.8 | 4.8 | 0.00 | 0.15 | 0.15 | 87 | 1009.3 |
| 20260506184042 | 17 | 172 | 4.8 | 4.8 | 0.00 | 0.15 | 0.15 | 87 | 1009.4 |
| 20260506183537 | 17 | 123 | 0.0 | 0.0 | 0.00 | 0.15 | 0.15 | 87 | 1009.3 |
| 20260506183034 | 17 | 199 | 3.2 | 4.8 | 0.00 | 0.15 | 0.15 | 87 | 1009.2 |
| 20260506182532 | 17 | 146 | 3.2 | 4.8 | 0.00 | 0.15 | 0.15 | 87 | 1009.6 |
| 20260506182029 | 17 | 147 | 1.6 | 3.2 | 0.00 | 0.15 | 0.15 | 88 | 1009.6 |
| 20260506181527 | 17 | 191 | 4.8 | 4.8 | 0.00 | 0.15 | 0.15 | 87 | 1009.5 |
| 20260506181023 | 17 | 164 | 3.2 | 3.2 | 0.00 | 0.15 | 0.15 | 88 | 1009.5 |
| 20260506180520 | 17 | 175 | 4.8 | 4.8 | 0.00 | 0.15 | 0.15 | 89 | 1009.6 |
| 20260506180016 | 17 | 222 | 4.8 | 4.8 | 0.00 | 0.15 | 0.15 | 89 | 1009.8 |
| 20260506175513 | 17 | 167 | 3.2 | 4.8 | 0.00 | 0.15 | 0.15 | 90 | 1009.8 |
| 20260506175009 | 17 | 164 | 3.2 | 3.2 | 0.00 | 0.15 | 0.15 | 91 | 1009.9 |
| 20260506174508 | 17 | 127 | 0.0 | 0.0 | 0.00 | 0.15 | 0.15 | 91 | 1009.8 |
| 20260506174004 | 17 | 158 | 0.0 | 1.6 | 0.00 | 0.15 | 0.15 | 90 | 1009.7 |
| 20260506173502 | 17 | 129 | 6.4 | 6.4 | 0.00 | 0.15 | 0.15 | 91 | 1009.6 |
| 20260506172958 | 17 | 129 | 3.2 | 4.8 | 0.00 | 0.15 | 0.15 | 93 | 1009.8 |
| 20260506172456 | 16 | 126 | 1.6 | 3.2 | 0.00 | 0.15 | 0.15 | 94 | 1009.6 |
| 20260506171952 | 16 | 124 | 0.0 | 0.0 | 0.00 | 0.15 | 0.15 | 94 | 1009.7 |
| 20260506171449 | 16 | 122 | 1.6 | 3.2 | 0.00 | 0.15 | 0.15 | 94 | 1010.0 |
| 20260506170947 | 16 | 161 | 3.2 | 3.2 | 0.00 | 0.15 | 0.15 | 95 | 1010.0 |
| 20260506170443 | 16 | 91 | 1.6 | 3.2 | 0.00 | 0.15 | 0.15 | 94 | 1010.0 |
| 20260506165942 | 16 | 151 | 1.6 | 3.2 | 0.00 | 0.15 | 0.15 | 95 | 1010.0 |
| 20260506165440 | 16 | 190 | 1.6 | 3.2 | 0.00 | 0.15 | 0.15 | 95 | 1010.0 |
| 20260506164936 | 16 | 168 | 3.2 | 3.2 | 0.00 | 0.15 | 0.15 | 95 | 1010.0 |
| 20260506164433 | 16 | 158 | 0.0 | 1.6 | 0.00 | 0.15 | 0.15 | 95 | 1010.2 |
| 20260506163931 | 16 | 129 | 0.0 | 0.0 | 0.00 | 0.15 | 0.15 | 95 | 1010.0 |
| 20260506163426 | 16 | 167 | 3.2 | 4.8 | 0.00 | 0.15 | 0.15 | 95 | 1010.2 |
| 20260506162921 | 16 | 174 | 4.8 | 6.4 | 0.00 | 0.15 | 0.15 | 95 | 1010.2 |
| 20260506162419 | 16 | 150 | 6.4 | 9.7 | 0.00 | 0.15 | 0.15 | 95 | 1010.3 |
| 20260506161916 | 16 | 145 | 3.2 | 3.2 | 0.00 | 0.15 | 0.15 | 96 | 1010.5 |
| 20260506161414 | 16 | 93 | 6.4 | 11.3 | 0.18 | 0.15 | 0.15 | 96 | 1010.3 |
| 20260506160911 | 16 | 100 | 0.0 | 0.0 | 0.18 | 0.15 | 0.15 | 95 | 1010.4 |
| 20260506160407 | 16 | 147 | 1.6 | 4.8 | 0.13 | 0.13 | 0.13 | 95 | 1010.3 |
| 20260506155906 | 16 | 175 | 1.6 | 1.6 | 0.30 | 0.13 | 0.13 | 94 | 1010.6 |
| 20260506155402 | 16 | 123 | 0.0 | 1.6 | 0.18 | 0.10 | 0.10 | 93 | 1010.9 |
| 20260506153519 | 16 | 171 | 3.2 | 3.2 | 0.13 | 0.08 | 0.08 | 92 | 1011.4 |
| 20260506153016 | 16 | 125 | 0.0 | 1.6 | 0.30 | 0.08 | 0.08 | 91 | 1011.3 |
| 20260506152513 | 16 | 187 | 3.2 | 6.4 | 0.18 | 0.05 | 0.05 | 89 | 1011.4 |
| 20260506152011 | 16 | 166 | 6.4 | 6.4 | 0.00 | 0.03 | 0.03 | 87 | 1011.3 |
| 20260506151509 | 17 | 99 | 3.2 | 4.8 | 0.13 | 0.03 | 0.03 | 87 | 1011.3 |
| 20260506151006 | 17 | 167 | 3.2 | 4.8 | 0.13 | 0.03 | 0.03 | 86 | 1011.3 |
| 20260506150502 | 17 | 120 | 4.8 | 4.8 | 0.00 | 0.00 | 0.00 | 84 | 1011.0 |
| 20260506145959 | 17 | 121 | 0.0 | 0.0 | 0.00 | 0.00 | 0.00 | 85 | 1011.3 |
| 20260506145455 | 17 | 167 | 1.6 | 3.2 | 0.00 | 0.00 | 0.00 | 84 | 1011.1 |
| 20260506144953 | 17 | 153 | 6.4 | 6.4 | 0.00 | 0.00 | 0.00 | 81 | 1011.0 |
| 20260506144450 | 17 | 92 | 0.0 | 1.6 | 0.00 | 0.00 | 0.00 | 82 | 1011.2 |
| 20260506143948 | 18 | 134 | 3.2 | 3.2 | 0.00 | 0.00 | 0.00 | 79 | 1011.2 |
| 20260506143444 | 18 | 183 | 1.6 | 1.6 | 0.00 | 0.00 | 0.00 | 79 | 1011.2 |
| 20260506142943 | 18 | 177 | 1.6 | 3.2 | 0.00 | 0.00 | 0.00 | 76 | 1011.4 |
| 20260506142440 | 18 | 198 | 4.8 | 4.8 | 0.00 | 0.00 | 0.00 | 73 | 1011.3 |
| 20260506141938 | 18 | 156 | 3.2 | 4.8 | 0.00 | 0.00 | 0.00 | 73 | 1011.3 |
| 20260506141436 | 18 | 145 | 0.0 | 1.6 | 0.00 | 0.00 | 0.00 | 74 | 1011.2 |
| 20260506140934 | 18 | 226 | 9.7 | 9.7 | 0.00 | 0.00 | 0.00 | 73 | 1011.4 |
| 20260506140431 | 18 | 205 | 4.8 | 4.8 | 0.00 | 0.00 | 0.00 | 72 | 1011.4 |
| 20260506135928 | 18 | 165 | 3.2 | 3.2 | 0.00 | 0.00 | 0.00 | 71 | 1011.4 |
| 20260506135425 | 19 | 189 | 1.6 | 3.2 | 0.00 | 0.00 | 0.00 | 71 | 1011.3 |
| 20260506134921 | 19 | 139 | 3.2 | 3.2 | 0.00 | 0.00 | 0.00 | 71 | 1011.3 |
| 20260506134417 | 19 | 133 | 0.0 | 0.0 | 0.00 | 0.00 | 0.00 | 71 | 1011.0 |
| 20260506133914 | 19 | 186 | 6.4 | 9.7 | 0.00 | 0.00 | 0.00 | 70 | 1011.3 |
| 20260506133411 | 20 | 109 | 4.8 | 4.8 | 0.00 | 0.00 | 0.00 | 69 | 1011.0 |
| 20260506132908 | 20 | 161 | 3.2 | 4.8 | 0.00 | 0.00 | 0.00 | 70 | 1010.9 |
| 20260506132405 | 19 | 151 | 4.8 | 6.4 | 0.00 | 0.00 | 0.00 | 70 | 1011.0 |
| 20260506131903 | 19 | 168 | 4.8 | 6.4 | 0.00 | 0.00 | 0.00 | 71 | 1011.2 |
| 20260506131359 | 18 | 146 | 0.0 | 0.0 | 0.00 | 0.00 | 0.00 | 73 | 1011.3 |
| 20260506130856 | 18 | 121 | 1.6 | 1.6 | 0.00 | 0.00 | 0.00 | 73 | 1010.9 |
| 20260506130352 | 18 | 81 | 1.6 | 1.6 | 0.00 | 0.00 | 0.00 | 73 | 1011.2 |
| 20260506125850 | 18 | 134 | 0.0 | 1.6 | 0.00 | 0.00 | 0.00 | 74 | 1011.2 |
| 20260506125349 | 18 | 187 | 6.4 | 6.4 | 0.00 | 0.00 | 0.00 | 74 | 1011.3 |
| 20260506124847 | 18 | 169 | 3.2 | 3.2 | 0.00 | 0.00 | 0.00 | 74 | 1011.4 |
| 20260506124343 | 18 | 156 | 1.6 | 4.8 | 0.00 | 0.00 | 0.00 | 74 | 1011.5 |
| 20260506123841 | 18 | 182 | 4.8 | 6.4 | 0.00 | 0.00 | 0.00 | 74 | 1011.6 |
| 20260506123339 | 18 | 159 | 6.4 | 6.4 | 0.00 | 0.00 | 0.00 | 74 | 1011.3 |
| 20260506122836 | 18 | 189 | 4.8 | 11.3 | 0.00 | 0.00 | 0.00 | 75 | 1011.3 |
| 20260506122333 | 18 | 113 | 1.6 | 3.2 | 0.00 | 0.00 | 0.00 | 75 | 1011.5 |
| 20260506121831 | 18 | 169 | 4.8 | 4.8 | 0.00 | 0.00 | 0.00 | 75 | 1011.5 |
| 20260506121328 | 18 | 85 | 4.8 | 6.4 | 0.00 | 0.00 | 0.00 | 75 | 1011.2 |
| 20260506120825 | 18 | 133 | 0.0 | 1.6 | 0.00 | 0.00 | 0.00 | 76 | 1011.3 |
| 20260506120323 | 18 | 136 | 0.0 | 1.6 | 0.00 | 0.00 | 0.00 | 76 | 1011.2 |
| 20260506115820 | 18 | 200 | 4.8 | 6.4 | 0.00 | 0.00 | 0.00 | 76 | 1011.2 |
| 20260506115318 | 18 | 75 | 1.6 | 3.2 | 0.00 | 0.00 | 0.00 | 76 | 1011.0 |
| 20260506114815 | 18 | 150 | 3.2 | 6.4 | 0.00 | 0.00 | 0.00 | 76 | 1011.1 |
| 20260506114313 | 18 | 145 | 0.0 | 1.6 | 0.00 | 0.00 | 0.00 | 76 | 1010.9 |
| 20260506113811 | 18 | 152 | 1.6 | 9.7 | 0.00 | 0.00 | 0.00 | 76 | 1010.7 |
| 20260506113309 | 18 | 129 | 3.2 | 4.8 | 0.00 | 0.00 | 0.00 | 76 | 1010.9 |
| 20260506112805 | 18 | 137 | 0.0 | 1.6 | 0.00 | 0.00 | 0.00 | 77 | 1010.9 |
| 20260506112305 | 18 | 104 | 1.6 | 1.6 | 0.00 | 0.00 | 0.00 | 77 | 1010.6 |
| 20260506111800 | 18 | 159 | 1.6 | 3.2 | 0.00 | 0.00 | 0.00 | 76 | 1010.7 |
| 20260506111258 | 18 | 188 | 6.4 | 6.4 | 0.00 | 0.00 | 0.00 | 76 | 1010.9 |
| 20260506110755 | 18 | 172 | 3.2 | 4.8 | 0.00 | 0.00 | 0.00 | 77 | 1010.7 |
| 20260506110252 | 18 | 138 | 4.8 | 6.4 | 0.00 | 0.00 | 0.00 | 77 | 1010.9 |
| 20260506105748 | 18 | 145 | 3.2 | 3.2 | 0.00 | 0.00 | 0.00 | 77 | 1010.9 |
| 20260506105246 | 18 | 177 | 9.7 | 11.3 | 0.00 | 0.00 | 0.00 | 77 | 1011.1 |
| 20260506104743 | 18 | 174 | 9.7 | 9.7 | 0.00 | 0.00 | 0.00 | 77 | 1010.6 |
| 20260506104241 | 18 | 195 | 3.2 | 4.8 | 0.00 | 0.00 | 0.00 | 77 | 1010.7 |
| 20260506103738 | 17 | 137 | 1.6 | 3.2 | 0.00 | 0.00 | 0.00 | 78 | 1010.6 |
| 20260506103235 | 17 | 184 | 3.2 | 3.2 | 0.00 | 0.00 | 0.00 | 78 | 1010.9 |
| 20260506102733 | 17 | 170 | 6.4 | 6.4 | 0.00 | 0.00 | 0.00 | 78 | 1010.7 |
| 20260506102231 | 17 | 135 | 0.0 | 1.6 | 0.00 | 0.00 | 0.00 | 78 | 1010.7 |
| 20260506101727 | 17 | 159 | 9.7 | 11.3 | 0.00 | 0.00 | 0.00 | 78 | 1011.0 |
| 20260506101224 | 17 | 125 | 0.0 | 0.0 | 0.00 | 0.00 | 0.00 | 79 | 1010.9 |
| 20260506100722 | 17 | 132 | 1.6 | 3.2 | 0.00 | 0.00 | 0.00 | 79 | 1010.7 |
| 20260506100220 | 17 | 117 | 0.0 | 0.0 | 0.00 | 0.00 | 0.00 | 79 | 1011.1 |
| 20260506095718 | 17 | 105 | 3.2 | 4.8 | 0.00 | 0.00 | 0.00 | 79 | 1010.7 |
| 20260506095214 | 17 | 124 | 1.6 | 3.2 | 0.00 | 0.00 | 0.00 | 79 | 1010.7 |
| 20260506094711 | 17 | 144 | 0.0 | 0.0 | 0.00 | 0.00 | 0.00 | 79 | 1010.7 |
| 20260506094209 | 17 | 152 | 1.6 | 3.2 | 0.00 | 0.00 | 0.00 | 79 | 1010.7 |
| 20260506093708 | 17 | 193 | 1.6 | 3.2 | 0.00 | 0.00 | 0.00 | 78 | 1010.9 |
| 20260506093204 | 17 | 153 | 0.0 | 1.6 | 0.00 | 0.00 | 0.00 | 78 | 1010.7 |
| 20260506092702 | 17 | 212 | 6.4 | 9.7 | 0.00 | 0.00 | 0.00 | 78 | 1011.0 |
| 20260506092159 | 18 | 177 | 3.2 | 4.8 | 0.00 | 0.00 | 0.00 | 77 | 1010.7 |
| 20260506091657 | 18 | 107 | 0.0 | 0.0 | 0.00 | 0.00 | 0.00 | 78 | 1010.9 |
| 20260506091154 | 18 | 154 | 4.8 | 4.8 | 0.00 | 0.00 | 0.00 | 77 | 1011.0 |
| 20260506090652 | 18 | 162 | 3.2 | 4.8 | 0.00 | 0.00 | 0.00 | 77 | 1011.1 |
| 20260506090148 | 18 | 150 | 4.8 | 6.4 | 0.00 | 0.00 | 0.00 | 76 | 1010.9 |
| 20260506085645 | 18 | 173 | 4.8 | 4.8 | 0.00 | 0.00 | 0.00 | 77 | 1010.9 |
| 20260506085141 | 18 | 146 | 0.0 | 0.0 | 0.00 | 0.00 | 0.00 | 77 | 1011.0 |
| 20260506084638 | 18 | 111 | 0.0 | 0.0 | 0.00 | 0.00 | 0.00 | 76 | 1010.9 |
| 20260506084135 | 18 | 120 | 6.4 | 9.7 | 0.00 | 0.00 | 0.00 | 76 | 1010.9 |
| 20260506083632 | 18 | 151 | 1.6 | 3.2 | 0.00 | 0.00 | 0.00 | 76 | 1010.9 |
| 20260506083130 | 18 | 140 | 8.0 | 9.7 | 0.00 | 0.00 | 0.00 | 75 | 1010.9 |
| 20260506082626 | 18 | 70 | 1.6 | 3.2 | 0.00 | 0.00 | 0.00 | 75 | 1010.6 |
| 20260506082122 | 18 | 165 | 4.8 | 4.8 | 0.00 | 0.00 | 0.00 | 74 | 1010.7 |
| 20260506081620 | 19 | 94 | 0.0 | 0.0 | 0.00 | 0.00 | 0.00 | 74 | 1010.9 |
| 20260506081118 | 19 | 137 | 6.4 | 6.4 | 0.00 | 0.00 | 0.00 | 73 | 1010.9 |
| 20260506080615 | 19 | 128 | 1.6 | 3.2 | 0.00 | 0.00 | 0.00 | 74 | 1011.0 |
| 20260506080112 | 19 | 107 | 0.0 | 1.6 | 0.00 | 0.00 | 0.00 | 74 | 1011.0 |
| 20260506073055 | 19 | 146 | 4.8 | 4.8 | 0.00 | 0.00 | 0.00 | 73 | 1011.0 |
| 20260506072552 | 19 | 174 | 3.2 | 3.2 | 0.00 | 0.00 | 0.00 | 73 | 1011.4 |
| 20260506072050 | 19 | 168 | 4.8 | 6.4 | 0.00 | 0.00 | 0.00 | 73 | 1011.4 |
| 20260506071548 | 19 | 160 | 0.0 | 0.0 | 0.00 | 0.00 | 0.00 | 74 | 1011.3 |
| 20260506071045 | 19 | 137 | 3.2 | 6.4 | 0.00 | 0.00 | 0.00 | 73 | 1011.2 |
| 20260506070542 | 19 | 185 | 3.2 | 4.8 | 0.00 | 0.00 | 0.00 | 74 | 1011.3 |
| 20260506062016 | 19 | 180 | 3.2 | 3.2 | 0.00 | 0.00 | 0.00 | 74 | 1011.5 |
| 20260506061512 | 19 | 151 | 3.2 | 3.2 | 0.00 | 0.00 | 0.00 | 74 | 1011.6 |
| 20260506061010 | 19 | 171 | 1.6 | 1.6 | 0.00 | 0.00 | 0.00 | 74 | 1011.6 |
| 20260506060508 | 19 | 145 | 0.0 | 0.0 | 0.00 | 0.00 | 0.00 | 74 | 1011.7 |